Snowfall_Accumulation
0.0 0.0 0.0 0.0 0.0 0.0 0.0 0.0 0.0 0.0 0.0 0.0 0.0 0.0 0.0 0.0 0.0 0.0 0.0 0.0 0.0 0.0
0.0 0.0 0.0 0.0 0.0 0.0 0.0 0.0 0.0 0.0 0.0 0.0 0.0 0.0 0.0 0.0 0.0 0.0 0.0 0.0 0.0 0.0
0.0 0.0 0.0 0.0 0.0 0.0 0.0 0.0 0.0 0.0 0.0 0.0 0.0 0.0 0.0 0.0 0.0 0.0 0.0 0.0 0.0 0.0
0.0 0.0 0.0 0.0 0.0 0.0 0.0 0.0 0.0 0.0 0.0 0.0 0.0 0.0 0.0 0.0 0.0 0.1 0.1 0.0 0.0 0.0
0.0 0.0 0.0 0.0 0.0 0.0 0.0 0.0 0.0 0.0 0.0 0.0 0.0 0.0 0.0 0.0 0.1 0.1 0.0 0.0 0.0 0.0
0.0 0.0 0.0 0.0 0.0 0.0 0.0 0.0 0.0 0.0 0.0 0.0 0.0 0.0 0.0 0.0 0.0 0.0 0.0 0.0 0.0 0.0
0.0 0.0 0.0 0.0 0.0 0.0 0.0 0.0 0.0 0.0 0.0 0.0 0.0 0.0 0.0 0.0 0.0 0.0 0.0 0.0 0.0 0.0
0.0 0.0 0.0 0.2 0.2 0.2 0.2 0.0 0.0 0.0 0.1 0.0 0.0 0.0 0.0 0.0 0.2 0.2 0.0 0.0 0.0 0.0
0.3 0.7 0.9 0.9 0.6 0.4 0.3 0.3 0.3 0.3 0.3 0.3 0.0 nan nan 0.0 0.2 0.3 0.0 0.0 0.0 0.0
1.3 1.6 1.2 0.8 0.7 0.5 0.5 0.4 0.4 0.3 0.3 0.3 0.2 nan nan nan 0.4 0.4 0.0 0.0 0.0 0.0
1.2 2.4 1.3 1.1 1.0 0.6 0.4 0.6 0.5 0.5 0.4 0.3 0.2 nan nan nan 0.2 0.3 0.0 0.0 0.0 0.0
1.9 2.8 1.4 3.4 1.5 1.0 1.8 1.1 2.3 1.9 3.4 2.6 2.2 nan nan 0.5 1.2 0.9 0.7 0.0 0.0 0.1
1.7 4.1 3.3 1.8 2.7 3.0 2.9 2.5 3.3 2.9 2.5 0.8 4.1 nan nan nan 4.7 5.7 3.2 1.5 0.1 0.1
1.8 4.4 2.7 3.1 2.5 3.7 4.2 2.1 3.9 3.5 2.7 3.1 1.5 1.5 nan nan 2.7 5.0 6.6 5.8 3.7 1.8
Water_Equivalent
0.00 0.00 0.00 0.00 0.00 0.00 0.00 0.00 0.00 0.00 0.00 0.00 0.00 0.00 0.00 0.00 0.00 0.00 0.00 0.00 0.00 0.00
0.00 0.00 0.00 0.00 0.00 0.00 0.00 0.00 0.00 0.00 0.00 0.00 0.00 0.00 0.00 0.00 0.00 0.00 0.00 0.00 0.00 0.00
0.00 0.00 0.00 0.00 0.00 0.00 0.00 0.00 0.00 0.00 0.00 0.00 0.00 0.00 0.00 0.00 0.00 0.00 0.00 0.00 0.00 0.00
0.00 0.00 0.00 0.00 0.00 0.00 0.00 0.00 0.00 0.00 0.00 0.00 0.00 0.00 0.00 0.00 0.00 0.01 0.01 0.00 0.00 0.00
0.00 0.00 0.00 0.00 0.00 0.00 0.00 0.00 0.00 0.00 0.00 0.00 0.00 0.00 0.00 0.00 0.02 0.02 0.00 0.00 0.00 0.00
0.00 0.00 0.00 0.00 0.00 0.00 0.00 0.00 0.00 0.00 0.00 0.00 0.00 0.00 0.00 0.00 0.00 0.00 0.00 0.00 0.00 0.00
0.00 0.00 0.00 0.00 0.00 0.00 0.00 0.00 0.00 0.00 0.00 0.00 0.00 0.00 0.00 0.00 0.00 0.00 0.00 0.00 0.00 0.00
0.00 0.00 0.01 0.03 0.04 0.03 0.03 0.00 0.00 0.00 0.01 0.00 0.00 0.00 0.00 0.00 0.03 0.03 0.00 0.00 0.00 0.00
0.05 0.10 0.13 0.12 0.08 0.05 0.04 0.04 0.04 0.04 0.04 0.04 0.00 nan nan 0.00 0.03 0.04 0.00 0.00 0.00 0.00
0.17 0.16 0.13 0.10 0.08 0.06 0.06 0.05 0.05 0.04 0.04 0.04 0.03 nan nan nan 0.06 0.06 0.00 0.00 0.00 0.00
0.13 0.25 0.13 0.11 0.11 0.07 0.05 0.07 0.05 0.06 0.06 0.04 0.03 nan nan nan 0.03 0.04 0.00 0.00 0.00 0.00
0.19 0.28 0.14 0.34 0.14 0.10 0.17 0.12 0.23 0.21 0.37 0.29 0.25 nan nan 0.07 0.16 0.11 0.09 0.00 0.00 0.01
0.17 0.42 0.32 0.17 0.26 0.30 0.29 0.26 0.36 0.30 0.27 0.10 0.43 nan nan nan 0.63 0.65 0.39 0.18 0.01 0.03
0.18 0.43 0.26 0.31 0.25 0.37 0.41 0.20 0.39 0.35 0.27 0.31 0.17 0.17 nan nan 0.35 0.61 0.78 0.68 0.43 0.22
SL_Ratio
nan nan nan nan nan nan nan nan nan nan nan nan nan nan nan nan nan nan nan nan nan nan
nan nan nan nan nan nan nan nan nan nan nan nan nan nan nan nan nan nan nan nan nan nan
nan nan nan nan nan nan nan nan nan nan nan nan nan nan nan nan nan nan nan nan nan nan
nan nan nan nan nan nan nan nan nan nan nan nan nan nan nan nan nan 6.0 5.9 nan nan nan
nan nan nan nan nan nan nan nan nan nan nan nan nan nan nan 5.0 6.0 5.9 6.7 nan nan nan
nan nan nan nan nan nan nan nan nan nan nan nan nan nan nan nan nan nan nan nan nan nan
nan nan nan nan nan nan nan nan nan nan nan nan nan nan nan nan nan nan nan nan nan nan
nan nan 5.8 6.2 6.3 6.4 6.5 nan nan nan 6.9 nan nan nan nan nan 6.3 6.7 nan nan nan nan
6.3 7.1 7.3 7.2 7.3 7.0 7.1 6.9 6.9 7.2 7.5 7.4 nan nan nan nan 6.8 6.8 5.0 6.5 nan nan
7.7 9.6 9.3 8.6 8.7 8.7 8.3 7.6 8.2 8.0 7.5 8.0 7.4 nan nan nan 7.4 7.3 6.4 5.8 6.1 6.3
9.2 9.8 9.9 9.9 9.7 9.1 8.6 8.7 8.9 8.4 8.0 8.0 7.8 nan nan nan 7.2 7.7 6.0 8.3 7.0 8.0
9.9 9.9 10.1 10.0 10.5 10.8 10.2 9.4 9.9 8.8 9.2 9.0 8.5 nan nan 7.5 7.8 8.2 8.1 7.3 7.1 7.4
10.1 10.0 10.2 10.5 10.3 10.0 9.9 9.9 9.2 9.8 9.1 7.5 9.6 nan nan nan 7.5 8.8 8.1 8.0 6.9 3.3
10.4 10.0 10.2 10.1 10.0 10.0 10.0 10.2 10.0 10.0 10.0 9.9 8.7 8.7 nan nan 7.8 8.1 8.5 8.5 8.6 8.0